This is the latest recevied weather packets stored in our database for station/object WX0ABE-13. If no packets are shown the sender has not sent any weather packets the latest 10 day(s).
| Time | Temp. | Humidity | Pressure | Rain* | Wind** | Luminosity | Snow |
|---|---|---|---|---|---|---|---|
| 1788207027 | 33.89° C | 27% | 1018.2 hPa | 0 mm | - | 612 W/m² | - |
| 1788206724 | 33.89° C | 28% | 1018.3 hPa | 0 mm | - | 606 W/m² | - |
| 1788206424 | 33.33° C | 27% | 1018.3 hPa | 0 mm | - | 650 W/m² | - |
| 1788206119 | 33.89° C | 28% | 1018.3 hPa | 0 mm | - | 654 W/m² | - |
| 1788205819 | 33.89° C | 26% | 1018.5 hPa | 0 mm | - | 692 W/m² | - |
| 1788205515 | 33.33° C | 29% | 1018.5 hPa | 0 mm | - | 689 W/m² | - |
| 1788205215 | 32.78° C | 29% | 1018.4 hPa | 0 mm | - | 506 W/m² | - |
| 1788204910 | 32.22° C | 27% | 1018.4 hPa | 0 mm | - | 459 W/m² | - |
| 1788204605 | 32.78° C | 28% | 1018.4 hPa | 0 mm | - | 468 W/m² | - |
| 1788204300 | 32.22° C | 27% | 1018.3 hPa | 0 mm | - | 619 W/m² | - |
| 1788203995 | 31.11° C | 31% | 1018.3 hPa | 0 mm | - | 545 W/m² | - |
| 1788203691 | 31.67° C | 28% | 1018.3 hPa | 0 mm | - | 449 W/m² | - |
| 1788203387 | 31.67° C | 29% | 1018.7 hPa | 0 mm | - | 579 W/m² | - |
| 1788203082 | 31.67° C | 30% | 1018.9 hPa | 0 mm | - | 539 W/m² | - |
| 1788202781 | 30.56° C | 28% | 1018.7 hPa | 0 mm | - | 609 W/m² | - |
| 1788202477 | 30.56° C | 31% | 1018.5 hPa | 0 mm | - | 372 W/m² | - |
| 1788202176 | 31.11° C | 31% | 1018.5 hPa | 0 mm | - | 280 W/m² | - |
| 1788201871 | 31.67° C | 29% | 1018.7 hPa | 0 mm | - | 363 W/m² | - |
| 1788201567 | 31.67° C | 28% | 1018.7 hPa | 0 mm | - | 633 W/m² | - |
| 1788201266 | 31.67° C | 30% | 1018.7 hPa | 0 mm | - | 678 W/m² | - |
| 1788200965 | 31.11° C | 31% | 1018.9 hPa | 0 mm | - | 677 W/m² | - |
| 1788200661 | 30.56° C | 31% | 1019.1 hPa | 0 mm | - | 675 W/m² | - |
| 1788200356 | 30.56° C | 32% | 1018.9 hPa | 0 mm | - | 687 W/m² | - |
| 1788200052 | 30.56° C | 33% | 1019 hPa | 0 mm | - | 595 W/m² | - |
| 1788199752 | 31.11° C | 30% | 1019.2 hPa | 0 mm | - | 685 W/m² | - |
* Rain latest hour (hover to see other rain measurements)
** Current wind speed in m/s (hover to see current wind gust speed)